Flag for U.S.A. Weather past 2 weeks in Brownsville, Texas, U.S.A.

Now
74 °F

Fog.


Feels Like: 70 °F
Forecast: 74 / 81 °F
Wind: 3 mph from Southeast

Location: Brownsville / South Padre Island International Airport

Current Time: Apr 18, 2015 at 10:18:07 AM

Latest Report: Apr 18, 2015 at 9:53 AM


Visibility: 4 mi

Pressure: 29.85 "Hg

Humidity: 97%

Dew point: 73 °F

Location of BrownsvilleLocation

Historic Weather in Brownsville — Graph

°F

Brownsville temperature yesterday

Maximum temperature yesterday: 82 °F (at 3:53 PM)
Minimum temperature yesterday: 75 °F (at 1:02 AM)
Average temperature yesterday: 78 °F

Past Weeks' High & Low Weather Summary

 TemperatureHumidityPressure
High86 °F (Apr 7, 1:53 PM)100% (Apr 5, 3:53 AM)30.15 "Hg (Apr 5, 3:53 AM)
Low64 °F (Apr 5, 6:53 AM)53% (Apr 7, 1:53 PM)29.77 "Hg (Apr 12, 7:53 PM)
Average76 °F85%29.93 "Hg
* Reported Apr 3 9:53 AM — Apr 18 9:03 AM, Brownsville, Weather by CustomWeather, © 2015

Note: Actual official high and low records may vary slightly from our data, if they occured in-between our weather recording intervals... More about our weather records

Advertising

Brownsville weather history for previous 24 hours

 ConditionsComfort  
Time TempWeatherWind HumidityBarometerVisibility
9:03 AM
Sat, Apr 18
74 °FLight rain. Fog.No wind97%29.88 "Hg4 mi
8:53 AM74 °FLight rain. Fog.7 mph97%29.86 "Hg4 mi
7:53 AM74 °FFog.6 mph94%29.83 "Hg5 mi
6:53 AM74 °FFog.5 mph94%29.81 "Hg6 mi
5:53 AM75 °FFog.9 mph94%29.81 "Hg4 mi
4:53 AM75 °FFog.7 mph96%29.81 "Hg4 mi
3:53 AM76 °FFog.12 mph97%29.80 "Hg3 mi
2:53 AM76 °FFog.5 mph97%29.83 "Hg5 mi
1:53 AM76 °FFog.3 mph97%29.83 "Hg5 mi
12:53 AM76 °FFog.3 mph97%29.85 "Hg5 mi
11:53 PM
Fri, Apr 17
76 °FFog.6 mph94%29.85 "Hg5 mi
10:53 PM77 °FFog.7 mph94%29.86 "Hg6 mi
9:53 PM76 °FLow clouds.7 mph94%29.82 "Hg7 mi
9:03 PM77 °FLow clouds.6 mph90%29.81 "Hg8 mi
8:53 PM76 °FMostly cloudy.6 mph94%29.80 "Hg8 mi
7:53 PM78 °FOvercast.9 mph87%29.79 "Hg8 mi
6:53 PM79 °FMostly cloudy.10 mph84%29.78 "Hg9 mi
5:53 PM80 °FMostly cloudy.15 mph79%29.77 "Hg10 mi
5:01 PM82 °FMore clouds than sun.20 mph77%29.78 "Hg10 mi
3:53 PM82 °FCloudy.20 mph77%29.79 "Hg9 mi
2:53 PM81 °FMostly cloudy.18 mph77%29.82 "Hg8 mi
1:53 PM81 °FMore clouds than sun.16 mph82%29.85 "Hg7 mi
12:53 PM80 °FCloudy.15 mph81%29.87 "Hg6 mi
12:01 PM79 °FFog.10 mph88%29.89 "Hg4 mi
10:53 AM79 °FFog.16 mph88%29.89 "Hg4 mi
Weather by CustomWeather, © 2015

See weather overviewHow to use our weather pages